Regional Weather Roundup
Issued by NWS

Home | Current Version | Previous Version | Graphics & Text | Print | Product List | Glossary On
Versions: 1 2 3 4 5 6 7 8 9 10 11 12 13 14 15 16 17 18 19 20 21 22 23 24 25 26 27 28 29 30 31 32 33 34 35 36 37 38 39 40 41 42 43 44 45 46 47 48 49 50
000
ASUS43 KLMK 280310
RWRKY
KENTUCKY REGIONAL WEATHER ROUNDUP
NATIONAL WEATHER SERVICE LOUISVILLE KY
1000 PM EST THU NOV 27 2014

NOTE "FAIR" INDICATES FEW OR NO CLOUDS BELOW 12,000 FEET
WITH NO SIGNIFICANT WEATHER AND/OR OBSTRUCTIONS TO VISIBILITY.

KYZ001>023-026-027-061>063-070>075-280400-
WESTERN AND SOUTH CENTRAL KENTUCKY

CITY           SKY/WX    TMP DP  RH WIND       PRES   REMARKS
PADUCAH        CLOUDY    28  25  88 CALM      30.47F
HENDERSON      CLEAR     27  21  80 N3        30.48S
OWENSBORO      MOCLDY    26  22  85 CALM      30.48F
HOPKINSVILLE   CLOUDY    28  25  87 CALM      30.49R
BOWLING GREEN  CLOUDY    30  18  60 NW5       30.48F WCI  25
GLASGOW        CLOUDY    29  23  78 NW6       30.46F WCI  23
$$

KYZ024-025-028>034-038-045-046-053-280400-
NORTH CENTRAL KENTUCKY

CITY           SKY/WX    TMP DP  RH WIND       PRES   REMARKS
LOUISVILLE/SDF FLURRIES  30  23  75 W7        30.44F WCI  23
LOUISVILLE/LOU CLOUDY    30  21  69 W5        30.44F WCI  25
FORT KNOX      CLOUDY    27  23  86 SW7       30.43S WCI  19
$$

KYZ035>037-039>044-047>052-055>060-089>105-280400-
NORTHEAST KENTUCKY

CITY           SKY/WX    TMP DP  RH WIND       PRES   REMARKS
LEXINGTON      CLOUDY    28  19  69 W8        30.41R WCI  20
COVINGTON      CLOUDY    29  17  61 NW7       30.39R WCI  22
FRANKFORT      CLOUDY    28  19  69 W6        30.41S WCI  22
$$

KYZ054-064>069-076>088-106>120-280400-
SOUTHEAST KENTUCKY

CITY           SKY/WX    TMP DP  RH WIND       PRES   REMARKS
JACKSON        CLOUDY    29  23  78 W6        30.36S WCI  23
LONDON         CLOUDY    30  22  72 W10       30.40R WCI  21
SOMERSET       CLOUDY    28  21  74 W9        30.45S WCI  20
MIDDLESBORO    NOT AVBL
MONTICELLO     FLURRIES  29  22  75 NW10      30.47R WCI  20
$$




USA.gov is the U.S. government's official web portal to all federal, state and local government web resources and services.